Regional Weather Roundup
Issued by NWS Wakefield, VA

Home | Current Version | Previous Version | Graphics & Text | Print | Product List | Glossary On
Versions: 1 2 3 4 5 6 7 8 9 10 11 12 13 14 15 16 17 18 19 20 21 22 23 24 25 26 27 28 29 30 31 32 33 34 35 36 37 38 39 40 41 42 43 44 45 46 47 48 49 50
129
ASUS41 KAKQ 241415
RWRAKQ

REGIONAL WEATHER ROUNDUP
NATIONAL WEATHER SERVICE WAKEFIELD VA
1000 AM EDT FRI MAR 24 2017

Note: "fair" indicates few or no clouds below 12,000 feet with no
significant weather and/or obstructions to visibility. * = Denotes
station may not report precipitation (e.g., rain,snow,etc.),
thunder or fog.

VAZ042-051-052>054-056-241500-
NORTHERN VIRGINIA

CITY           SKY/WX    TMP DP  RH WIND       PRES   REMARKS
WASH NATIONAL  CLOUDY    41  29  62 S14       30.46F
DULLES         LGT RAIN  37  31  78 S9        30.44F
FORT BELVOIR   CLOUDY    41  29  64 S8        30.46F
QUANTICO       LGT RAIN  40  31  70 S15       30.49F
FREDERICKSBRG* CLOUDY    40  31  69 S7        30.49F
STAFFORD*      PTSUNNY   38  29  70 S9        30.51F
WARRENTON      LGT RAIN  40  31  71 SW6       30.45S
CULPEPER*      LGT RAIN  39  35  84 S7        30.47F
MANASSAS*      LGT RAIN  40  33  76 SW7       30.46F
LEESBURG*      RAIN      37  36  93 S9        30.42F
WINCHESTER     LGT RAIN  36  34  93 SW5       30.37F
FRONT ROYAL*     N/A    N/A N/A N/A MISG        N/A
LURAY*         CLOUDY    41  37  87 SW5       30.40F
$$

VAZ048-049-060>072-079>083-241500-
CENTRAL AND SOUTH CENTRAL VIRGINIA

CITY           SKY/WX    TMP DP  RH WIND       PRES   REMARKS
RICHMOND       PTSUNNY   44  22  41 SW10      30.52R
CHESTERFIELD*  FAIR      45  16  31 SW6       30.53R
PETERSBURG*    MOSUNNY   41  23  49 SW5       30.52R
HANOVER        CLOUDY    44  22  41 VRB7      30.53R
TAPPAHANNOCK*  CLOUDY    41  12  30 SW6       30.53R
QUINTON*       FAIR      41  25  52 S6        30.52R
CHARLOTTSVILLE LGT RAIN  40  31  70 S6        30.45S
GORDONSVILLE*  CLOUDY    37  31  78 SW6       30.46F
ORANGE*        RAIN      37  30  75 S8        30.47F
LOUISA*        CLOUDY    43  34  70 S3        30.47S
BUMPASS*       CLOUDY    39  28  64 S6        30.50S
FARMVILLE*     CLOUDY    46  33  59 SW7       30.48R
CREWE*         PTSUNNY   45  30  56 S6        30.50S
FORT PICKETT*  FAIR      43  20  39 SW8       30.50S
CHASE CITY*    FAIR      47  27  45 SW5       30.50S
CLARKSVILLE*   FAIR      46  30  53 S6        30.50R
SOUTH HILL*    SUNNY     44  29  57 SW5       30.56S
LAWRENCEVILLE* FAIR      46  25  44 SW9       30.51S
EMPORIA*       MOSUNNY   45  25  45 SE6       30.53F
$$

VAZ088>098-241500-
SOUTHEAST VIRGINIA

CITY           SKY/WX    TMP DP  RH WIND       PRES   REMARKS
NORFOLK        MOSUNNY   51  29  42 S12       30.52S
VIRGINIA BEACH CLOUDY    50  31  48 S8        30.51F
NORFOLK NAVAL  CLOUDY    50  27  40 S8        30.53F
WEST POINT*    MOSUNNY   44  26  48 S6        30.53S
SALUDA*        FAIR      44  24  45 S9        30.50S
NEWPORT NEWS   CLOUDY    48  29  47 S8        30.52S
LANGLEY AFB    PTSUNNY   47  28  48 S9        30.51F
FORT EUSTIS    CLOUDY    48  29  48 S6        30.50R
WILLIAMSBURG*  CLOUDY    45  28  53 CALM      30.53S
HR EXEC AP*    FAIR      46  32  57 S8        30.52S
FRANKLIN*      CLOUDY    47  29  48 S6        30.54R
US460-WAKEFLD  CLOUDY    45  27  49 S8G16     30.52S
$$

VAZ020-022-025-037-045-241500-
WEST CENTRAL AND SOUTHWEST VIRGINIA

CITY           SKY/WX    TMP DP  RH WIND       PRES   REMARKS
STAUNTON*      CLOUDY    43  26  51 S3        30.42F
WAYNESBORO*    CLOUDY    43  26  52 NE3       30.40F
HOT SPRINGS VA CLOUDY    46  21  36 W12       30.36S
LYNCHBURG      CLOUDY    46  30  53 SW12G23   30.45F
DANVILLE       SUNNY     46  34  62 SW7       30.50S
SOUTH BOSTON*  FAIR      46  30  53 CALM      30.51R
MARTINSVILLE   CLOUDY    49  28  45 W6        30.50R
ROANOKE        CLOUDY    44  27  51 SE3       30.45S
BLACKSBURG     CLOUDY    47  30  50 CALM      30.45R
DUBLIN*        CLOUDY    49  30  47 S3        30.42F
MARION*        CLOUDY    50  28  43 CALM      30.42F
HILLSVILLE*    CLOUDY    46  31  56 S9        30.40S
RICHLANDS*     FAIR      56  38  52 CALM      30.37S
WISE*          SUNNY     55  36  47 SW12      30.37S
ABINGDON*      SUNNY     56  33  41 E3        30.40R
$$

MDZ021>025-VAZ099-100-241500-
SOUTHERN MARYLAND AND THE DELMARVA PENINSULA

CITY           SKY/WX    TMP DP  RH WIND       PRES   REMARKS
PATUXENT RIVER PTSUNNY   42  26  53 SW9       30.50S
BAY BRIDGE APT CLOUDY    41  25  52 S12G20    30.47F
LEONARDTOWN    CLOUDY    41  27  56 SW7       30.51F
DOVER          CLOUDY    42  31  66 S13       30.46F
GEORGETOWN     PTSUNNY   45  28  51 S9        30.50F
EASTON         NOT AVBL
CAMBRIDGE      SUNNY     45  25  45 SW10      30.50R
SALISBURY      CLOUDY    45  26  47 SW13      30.50S
OCEAN CITY     CLOUDY    46  30  53 SW14      30.51F
WALLOPS ISLAND CLOUDY    46  35  65 S15       30.52F
ACCOMACK*      CLOUDY    48  31  52 S10       30.52S
$$

NCZ012>017-030>032-241500-
NORTH CENTRAL AND EASTERN NORTH CAROLINA

CITY           SKY/WX    TMP DP  RH WIND       PRES   REMARKS
ROANOKE RAPIDS FAIR      46  32  57 S3        30.52S
RALEIGH        MOSUNNY   52  39  61 SW9       30.51S
ELIZABETH CITY SUNNY     52  34  50 S6        30.54S
AHOSKIE*         N/A     48  31  51 S7        30.53S
EDENTON*       SUNNY     51  26  36 CALM      30.54S
CURRITUCK*     SUNNY     51  31  46 CALM      30.54S
KILL DEVIL HLS NOT AVBL
MANTEO         SUNNY     52  40  64 SE7       30.54F
CAPE HATTERAS  SUNNY     61  46  57 S8        30.54S
TARBORO*       NOT AVBL
GOLDSBORO      SUNNY     52  38  59 SE3       30.51S
WASHINGTON     SUNNY     51  28  41 SE6       30.54S
GREENVILLE     SUNNY     52  34  50 S3        30.52S
NEW BERN       SUNNY     51  43  74 CALM      30.55S
WILMINGTON     SUNNY     54  43  66 CALM      30.53S
$$

VAZ048-241500-
ELSEWHERE

CITY           SKY/WX    TMP DP  RH WIND       PRES   REMARKS
HARRISBURG PA  LGT RAIN  39  26  59 VRB6      30.38F
BALTIMORE      CLOUDY    42  26  53 SW10G18   30.44F
ANNAPOLIS      PTSUNNY   43  24  47 S9        30.46F
ANDREWS AFB    CLOUDY    41  25  53 S18       30.44F
PHILADELPHIA   PTSUNNY   43  24  47 S13       30.46F
HENDERSON NC   SUNNY     46  33  60 SW7       30.51R
GREENSBORO     CLOUDY    47  32  56 SW10      30.48F
ROCKY MOUNT    MOSUNNY   49  38  65 S5        30.53R
$$

VAZ100-241500-
MARINE

STATION/POSITION TIME  TEMP    WIND        PRES    WAVE   SWELL
                       AIR SEA DIR/SP/G            HT/PER HT/PER
                 (UTC) (F)     (DEG/KT/KT) (MB)    (FT/S) (FT/S)
CAPE MAY NJ      1336   42 42  210/ 13/ 17 1032.1F
LEWES DE         1336   44 42  220/  7/ 12 1032.5F
OCEAN-CITY-INLET 1336   43 42  210/ 13/ 15 1033.5F
WACHAPREAGUE VA  1336   46 44  210/ 12/ 16 1033.3F
THOMAS POINT MD  1400   40 43  200/ 17/ 19   N/A
GOOSES REEF MD   1350   41     210/ 12/ 14 1033.0S
COVE POINT MD    1336   40     230/ 10/ 17 1033.5R
SOLOMONS ISLAND  1336   42 44  230/  9/ 14   N/A
BISHOPS HEAD MD  1336   43 42  200/ 16/ 19 1032.7F
PINEY POINT MD   1348          260/  5/  6   N/A
POTOMAC MD       1350   43     240/ 10/ 12 1032.3S
CAMBRIDGE MD     1336   43 44  200/  7/ 10 1032.1R
LEWISETTA VA     1336   42 45  240/ 12/ 14 1032.5F
RAPPAHANNOCK LGT 1342          180/ 14/ 15 1033.9S
STINGRAY PT      1350   44     200/ 12/ 14 1033.1F
YORK RVR RNG VA  1336   44     200/ 11/ 12 1032.6F
YORKTOWN VA      1336   45 47  200/  7/  9 1032.9S
JAMESTOWN VA     1350   40     120/  6/  6   N/A
DOMINION TERM VA 1336   44     180/  7/  8 1033.6F
KIPTOPEKE VA     1342      45  190/ 11/ 13   N/A
CHES BAY BRIDGE  1342   47 47  200/ 10/ 12 1033.3F
CAPE HENRY VA    1342   49     190/  8/ 11   N/A
WILLOUBY STN VA  1342   45     200/ 11/ 12 1034.3F
S CRANEY ISL VA  1342   45     190/  7/  9 1033.3F
CAPE HENRY BUOY  1342      45                N/A     3/ 8
CAPE CHARLES BUO 1351      45                N/A     3/ 3
OFFSHORE WE BUOY 1351      45                N/A     3/ 9
64NM E OF VA BCH 1350   50 48  140/  6/  8 1034.0F   3/ 9   3/ 9
DUCK PIER NC     1342   48 47  120/  5/  6 1033.5F
44100 DUCK FRF   1305      47                N/A     3/ 7   2/11
44056 DUCK FRF   1330      48                N/A     3/ 9   2/11
OREGON INLET NC  1342   49 49   70/  6/  9 1034.1S
HATTERAS NC      1342   57 51  150/  8/ 10 1033.6R
DIAMOND SHLS NC  1350   60 75  180/ 14/ 19 1034.3R   5/10   5/10
CAPE LOOKOUT NC  1300   52      40/  6/  7 1033.5R
$$




USA.gov is the U.S. government's official web portal to all federal, state and local government web resources and services.